TimeEST,TemperatureF,Dew PointF,Humidity,Sea Level PressureIn,VisibilityMPH,Wind Direction,Wind SpeedMPH,Gust SpeedMPH,PrecipitationIn,Events,Conditions,WindDirDegrees,DateUTC
12:53 AM,25.0,12.9,60,30.23,10.0,Calm,Calm,-,N/A,,Clear,0,2013-01-03 05:53:00
2:53 AM,23.0,14.0,68,30.23,10.0,Calm,Calm,-,N/A,,Clear,0,2013-01-03 07:53:00
3:53 AM,21.9,14.0,72,30.22,10.0,Calm,Calm,-,N/A,,Clear,0,2013-01-03 08:53:00
4:53 AM,19.9,14.0,78,30.22,10.0,Calm,Calm,-,N/A,,Clear,0,2013-01-03 09:53:00
5:53 AM,19.9,14.0,78,30.23,10.0,Calm,Calm,-,N/A,,Clear,0,2013-01-03 10:53:00
6:53 AM,17.1,12.9,84,30.23,7.0,Calm,Calm,-,N/A,,Clear,0,2013-01-03 11:53:00
7:53 AM,18.0,12.9,81,30.24,8.0,SW,4.6,-,N/A,,Clear,220,2013-01-03 12:53:00
8:53 AM,21.9,15.1,75,30.25,9.0,SSW,3.5,-,N/A,,Clear,210,2013-01-03 13:53:00
9:53 AM,26.1,14.0,60,30.25,10.0,Calm,Calm,-,N/A,,Clear,0,2013-01-03 14:53:00
10:53 AM,30.0,15.1,54,30.24,10.0,SSW,3.5,-,N/A,,Clear,210,2013-01-03 15:53:00
11:53 AM,32.0,15.1,50,30.20,-9999.0,SSW,4.6,-,N/A,,Clear,200,2013-01-03 16:53:00
12:53 PM,35.1,16.0,46,30.16,0.2,Variable,5.8,-,N/A,,Haze,0,2013-01-03 17:53:00
12:57 PM,35.6,15.8,44,30.14,1.0,Variable,5.8,-,N/A,,Haze,0,2013-01-03 17:57:00
12:59 PM,35.6,15.8,44,30.14,5.0,WSW,6.9,-,N/A,,Haze,240,2013-01-03 17:59:00
1:53 PM,37.0,15.1,41,30.14,10.0,WSW,6.9,-,N/A,,Clear,240,2013-01-03 18:53:00
2:53 PM,37.9,16.0,41,30.14,10.0,SSW,4.6,-,N/A,,Clear,200,2013-01-03 19:53:00
3:53 PM,37.9,17.1,43,30.14,10.0,SSW,4.6,-,N/A,,Clear,200,2013-01-03 20:53:00
4:53 PM,37.0,18.0,46,30.15,10.0,SW,3.5,-,N/A,,Clear,220,2013-01-03 21:53:00
5:53 PM,34.0,17.1,50,30.17,10.0,SSW,4.6,-,N/A,,Clear,210,2013-01-03 22:53:00
6:53 PM,33.1,17.1,52,30.17,10.0,SSE,4.6,-,N/A,,Clear,160,2013-01-03 23:53:00
7:53 PM,36.0,15.1,43,30.19,10.0,South,5.8,-,N/A,,Clear,190,2013-01-04 00:53:00
8:53 PM,34.0,18.0,52,30.18,10.0,West,15.0,-,N/A,,Clear,260,2013-01-04 01:53:00
9:53 PM,35.1,18.0,50,30.18,10.0,West,12.7,24.2,N/A,,Clear,270,2013-01-04 02:53:00
10:53 PM,35.1,18.0,50,30.18,10.0,WSW,6.9,-,N/A,,Clear,250,2013-01-04 03:53:00
11:53 PM,35.1,19.0,52,30.18,10.0,West,10.4,-,N/A,,Overcast,270,2013-01-04 04:53:00